[[[{"header":{"parameterUnit":"kt","parameterCategory":2,"dx":1,"dy":1,"la1":30.253999710083008,"la2":30.299108505249023,"lo1":-89.0895004272461,"lo2":-89.04439544677734,"nx":28,"ny":28,"refTime":"2022-09-24T21:00:00:Z","depth":0,"parameterNumber":1,"parameterNumberName":"U-component_of_WINDS"},"data":[3.3922,3.3952,3.392,3.3939,3.3913,3.3919,3.3911,3.3896,3.3876,3.3879,3.3875,3.3844,3.381,3.3795,3.3787,3.3773,3.377,3.3804,3.3781,3.3662,3.3643,3.3624,3.3614,3.3806,3.3806,3.3908,3.3909,3.3909,3.3832,3.3806,3.3809,3.3787,3.3788,3.3735,3.3714,3.3716,3.3724,3.37,3.3695,3.3695,3.369,3.3643,3.3632,3.3643,3.3616,3.3642,3.3638,3.3633,3.3505,3.3494,3.3664,3.3664,3.3664,3.3664,3.3664,3.3664,3.3658,3.3679,3.3647,3.3649,3.363,3.3616,3.3629,3.3592,3.3592,3.3579,3.354,3.3547,3.3516,3.3488,3.347,3.3473,3.3438,3.3455,3.3458,3.3462,3.347,3.3319,3.347,3.347,3.3469,3.3469,3.3468,0,3.352,3.3491,3.3491,3.3482,3.3481,3.347,3.3455,3.3462,3.3389,3.3394,3.3395,3.3391,3.3381,3.3378,3.3361,3.3338,3.3281,3.3273,3.3284,3.33,3.3316,3.3302,3.3091,3.3268,3.3266,3.3265,3.3264,3.3263,3.3338,3.3369,3.3321,3.3325,3.3308,3.3318,3.3315,3.3249,3.325,3.322,3.3242,3.3239,3.3233,3.3241,3.3195,3.3188,3.3159,3.323,3.3157,3.3172,3.3154,3.3151,3.3151,3.3244,3.3246,3.3248,3.325,0,3.3238,3.3185,3.3221,3.3171,3.3159,3.3193,3.3149,3.3167,3.3129,3.3148,3.3149,3.3088,3.3092,3.3034,3.3027,3.2997,3.3046,3.3021,3.3055,3.3045,3.3098,3.3092,3.3292,3.3313,3.3119,3.3121,3.3122,0,3.306,3.3103,3.302,3.3044,3.3088,3.302,3.3065,3.3037,3.301,3.3025,3.2953,3.2968,3.2893,3.2899,3.2855,3.2886,3.2886,3.2863,3.285,3.2867,3.2869,3.2862,3.2851,3.2825,3.2824,3.2824,3.2823,0,3.2904,3.2913,3.2952,3.2945,3.2896,3.2915,3.2896,3.2866,3.2865,3.2855,3.2853,3.2847,3.2843,3.2838,3.278,3.2733,3.2819,3.2742,3.2794,3.2796,3.2814,3.2813,3.3008,3.2822,3.2821,3.2821,3.2821,0,3.2751,3.2744,3.2811,3.2766,3.2771,3.2798,3.2786,3.2797,3.2771,3.2744,3.2736,3.268,3.2707,3.2633,3.2667,3.262,3.262,3.2601,3.2604,3.2599,3.2517,3.2628,3.2824,3.284,3.2598,3.2596,3.2595,0,3.2585,3.264,3.2581,3.2647,3.2663,3.2578,3.2607,3.2587,3.2555,3.2562,3.2526,3.2536,3.247,3.2465,3.249,3.2451,3.2512,3.2442,3.2448,3.2449,3.2453,3.2633,3.2674,3.2789,3.2571,3.2573,3.2575,0,3.2449,3.2391,3.2407,3.2394,3.2359,3.2374,3.2408,3.2403,3.2411,3.2399,3.2422,3.2439,3.2387,3.2381,3.2335,3.2364,3.2469,3.2305,3.2303,3.2332,3.2556,3.2593,3.2613,3.2431,3.2434,3.2436,3.2556,0,3.222,3.2242,3.2285,3.2264,3.2267,3.2307,3.2247,3.2257,3.2212,3.2176,3.2213,3.2184,3.2179,3.2189,3.2146,3.2232,3.2208,3.2154,3.2075,3.2196,3.2233,3.2249,3.2024,3.2021,3.2019,3.2017,0,0,3.2071,3.2102,3.2038,3.2069,3.2067,3.1979,3.2026,3.2014,3.1993,3.1992,3.1948,3.1966,3.1945,3.1995,3.2029,3.203,3.2037,3.1999,3.214,3.2154,3.2167,3.2208,3.2226,3.2013,3.2013,3.2012,3.2011,0,3.1974,3.1957,3.2006,3.199,3.1965,3.1925,3.1938,3.1897,3.1876,3.1915,3.184,3.1855,3.1875,3.1858,3.1853,3.1992,3.1933,3.1996,3.2088,3.212,3.2137,3.2152,3.2196,3.2214,3.2006,3.2006,3.2006,0,3.1826,3.1797,3.1815,3.1809,3.1792,3.1813,3.1716,3.1744,3.1758,3.166,3.1699,3.1675,3.1651,3.1709,3.1734,3.1694,3.1841,3.1786,3.1799,3.1799,3.1827,3.1847,3.1866,3.1624,3.1622,3.1621,0,0,3.175,3.1771,3.1719,3.1784,3.1778,3.1721,3.1727,3.1682,3.1663,3.1656,3.1623,3.1607,3.1615,3.1623,3.1629,3.1704,3.1691,3.1742,3.176,3.1775,3.1783,3.1815,3.1835,3.1617,3.1617,3.1617,0,0,3.1713,3.1655,3.1613,3.1681,3.1666,3.1618,3.1659,3.1606,3.1606,3.1594,3.152,3.1512,3.1566,3.1546,3.1498,3.1599,3.1523,3.1534,3.161,3.1632,3.165,3.1652,3.1393,0,0,0,0,0,3.1582,3.1661,3.1624,3.1627,3.162,3.1639,3.1638,3.1578,3.1524,3.1558,3.1521,3.146,3.1504,3.1459,3.1462,3.1516,3.1564,3.1574,3.1582,3.1698,3.1722,3.1742,0,0,0,0,0,0,3.1583,3.1586,3.1622,3.1579,3.1576,3.1636,3.1531,3.1517,3.1519,3.1506,3.1469,3.1459,3.1408,3.1453,3.1457,3.1509,3.1391,3.1568,3.1576,3.1583,3.1706,3.1726,3.1742,0,0,0,0,0,3.1583,3.1585,3.1591,3.1577,3.1575,3.1515,3.1527,3.1515,3.1515,3.146,3.1448,3.147,3.1411,3.141,3.1455,3.1509,3.1388,3.139,3.1573,3.1579,3.1585,3.1716,0,0,0,0,0,0,3.1583,3.1573,3.1589,3.1586,3.1543,3.151,3.1503,3.1513,3.1467,3.1456,3.1457,3.1448,3.1415,3.1413,3.1413,3.1512,3.1386,3.1387,3.1388,3.1578,3.1583,3.1587,0,0,0,0,0,0,3.1571,3.1572,3.1587,3.1547,3.1539,3.1507,3.15,3.1531,3.1468,3.1467,3.1458,3.1454,3.1415,3.1416,3.1415,3.1465,3.1384,3.1385,3.1387,3.1387,3.1582,3.1586,0,0,0,0,0,0,3.157,3.1571,3.1548,3.1542,3.1534,3.1497,3.1532,3.1528,3.1435,3.147,3.1425,3.142,3.1419,3.1417,3.1417,3.1468,3.1466,3.1384,3.1385,3.1386,3.1386,0,0,0,0,0,0,0,3.157,3.1583,3.1606,3.1537,3.153,3.1559,3.1559,3.1558,3.1434,3.143,3.1426,3.1422,3.1375,3.1376,3.1378,3.147,0,0,3.1384,3.1385,0,0,0,0,0,0,0,0,3.1582,3.1583,3.1606,3.1605,3.1605,3.1559,3.1559,3.1558,3.1433,3.143,3.1426,3.1423,3.1375,3.1377,3.1378,0,0,0,0,0,0,0,0,0,0,0,0,0,0,0,3.1606,3.1605,0,3.1559,3.1559,3.1558,3.1433,3.143,3.1427,3.1425,3.1376,3.1377,3.1378,0,0,0,0,0,0,0,0,0,0,0,0,0,0,0,0,0,0,0,0,0,0,0,0,0,0,0,0,0,0,0,0,0,0,0,0,0,0,0,0,0,0,0,0,0,0,0,0,0,0,0,0,0,0,0,0,0,0,0,0,0,0,0,0,0,0,0,0,0]}],[{"header":{"parameterUnit":"kt","parameterCategory":2,"dx":1,"dy":1,"la1":30.253999710083008,"la2":30.299108505249023,"lo1":-89.0895004272461,"lo2":-89.04439544677734,"nx":28,"ny":28,"refTime":"2022-09-24T21:00:00:Z","depth":0,"parameterNumber":2,"parameterNumberName":"V-component_of_WINDS"},"data":[8.2856,8.2921,8.2885,8.2942,8.292,8.2952,8.2952,8.2949,8.2937,8.2972,8.2986,8.2957,8.2932,8.294,8.2953,8.2939,8.2946,8.2994,8.297,8.2788,8.276,8.2734,8.2715,8.2997,8.2998,8.3162,8.3164,8.3165,8.2722,8.2701,8.2722,8.2717,8.2734,8.2665,8.2657,8.2675,8.2706,8.2693,8.2705,8.2733,8.2751,8.2709,8.272,8.2749,8.2716,8.2754,8.2749,8.2746,8.2551,8.2531,8.2779,8.2779,8.2779,8.2779,8.2779,8.2779,8.2468,8.2509,8.2485,8.2507,8.2495,8.2493,8.2525,8.2489,8.2508,8.2516,8.247,8.2506,8.2486,8.2482,8.2473,8.2498,8.2451,8.248,8.2487,8.2494,8.2507,8.2268,8.2499,8.2499,8.2498,8.2497,8.2496,0,8.227,8.2238,8.2255,8.2262,8.2276,8.2279,8.2275,8.2294,8.2213,8.2233,8.2259,8.2268,8.2286,8.2306,8.2309,8.2292,8.2222,8.2213,8.2232,8.2252,8.227,8.2258,8.1938,8.2206,8.2203,8.2201,8.22,8.2199,8.2008,8.2062,8.202,8.2038,8.2026,8.2056,8.2066,8.1991,8.2005,8.1989,8.2029,8.2049,8.206,8.2109,8.2065,8.2079,8.2045,8.215,8.2046,8.2064,8.2042,8.2038,8.2042,8.2171,8.2174,8.2177,8.218,0,8.1863,8.1805,8.1876,8.183,8.182,8.188,8.1839,8.1878,8.1838,8.1886,8.1892,8.183,8.1857,8.1796,8.1816,8.1783,8.1878,8.1847,8.1883,8.1872,8.1958,8.195,8.2254,8.2288,8.1998,8.2001,8.2003,0,8.1615,8.1689,8.1597,8.1641,8.172,8.1641,8.1721,8.1695,8.1676,8.1713,8.1624,8.1661,8.1577,8.1605,8.1557,8.1624,8.1628,8.1606,8.1592,8.1612,8.1615,8.1616,8.1601,8.1562,8.156,8.1559,8.1558,0,8.1392,8.1431,8.1503,8.1502,8.1461,8.1497,8.1482,8.146,8.1472,8.1477,8.1482,8.1495,8.1502,8.1512,8.145,8.1381,8.1532,8.1424,8.1508,8.151,8.1543,8.1541,8.1828,8.1556,8.1556,8.1555,8.1555,0,8.1182,8.1188,8.1304,8.1266,8.1279,8.1328,8.1333,8.1361,8.1345,8.1317,8.1321,8.1254,8.131,8.1207,8.1282,8.121,8.1221,8.1205,8.121,8.1209,8.1094,8.126,8.1542,8.1568,8.1211,8.1208,8.1205,0,8.094,8.1042,8.0974,8.1086,8.1124,8.1019,8.1072,8.1061,8.1028,8.1055,8.1019,8.1051,8.0962,8.0963,8.1009,8.0972,8.1066,8.0958,8.0995,8.0997,8.0998,8.1258,8.1313,8.1488,8.1168,8.1172,8.1175,0,8.0745,8.0694,8.072,8.0714,8.0687,8.0719,8.0782,8.0795,8.0816,8.0816,8.0863,8.091,8.0842,8.0846,8.0793,8.0844,8.1,8.0766,8.0764,8.0807,8.1145,8.1197,8.1227,8.0953,8.0958,8.0961,8.1145,0,8.0433,8.0478,8.0544,8.0538,8.0553,8.0622,8.0555,8.058,8.0526,8.0489,8.0561,8.0538,8.0553,8.0572,8.0521,8.0658,8.0625,8.0554,8.0447,8.0619,8.0678,8.0702,8.0365,8.0361,8.0358,8.0356,0,0,8.0215,8.0277,8.0202,8.0259,8.0266,8.0157,8.0235,8.023,8.0224,8.0232,8.0172,8.0233,8.0217,8.0311,8.0359,8.0368,8.0385,8.0328,8.0539,8.0559,8.0578,8.0642,8.0669,8.0351,8.035,8.0349,8.0348,0,8.0086,8.0073,8.0152,8.0143,8.0128,8.0085,8.0104,8.007,8.005,8.0121,8.0029,8.0064,8.0118,8.011,8.0114,8.0315,8.0243,8.0326,8.0454,8.0511,8.0536,8.0558,8.0626,8.0652,8.034,8.0341,8.0341,0,7.988,7.9854,7.9886,7.99,7.9889,7.9933,7.9804,7.9857,7.9887,7.9765,7.9837,7.9816,7.9803,7.9902,7.9944,7.989,8.0118,8.0036,8.0053,8.0055,8.0107,8.0137,8.0164,7.9814,7.9813,7.9811,0,0,7.9778,7.9819,7.9768,7.9868,7.9867,7.9805,7.9822,7.977,7.976,7.9757,7.9727,7.9721,7.975,7.9771,7.9795,7.9914,7.9904,7.9974,7.9999,8.0019,8.0033,8.0091,8.012,7.9805,7.9805,7.9805,0,0,7.9728,7.9672,7.962,7.9727,7.9721,7.9677,7.9741,7.9675,7.969,7.9674,7.9589,7.9584,7.9676,7.9659,7.9587,7.9755,7.9651,7.9667,7.9763,7.9793,7.9817,7.9818,7.9451,0,0,0,0,0,7.9562,7.9679,7.9632,7.964,7.9659,7.9704,7.9706,7.9637,7.9564,7.9615,7.958,7.9502,7.9601,7.9536,7.9545,7.9626,7.9729,7.9742,7.9755,7.9906,7.9938,7.9966,0,0,0,0,0,0,7.9565,7.9575,7.9628,7.9591,7.9594,7.9699,7.9559,7.9544,7.9557,7.9541,7.9512,7.9501,7.9444,7.9526,7.9536,7.9614,7.9448,7.9734,7.9746,7.9756,7.9917,7.9944,7.9966,0,0,0,0,0,7.9567,7.9575,7.9623,7.9588,7.9591,7.9529,7.9554,7.954,7.9549,7.9495,7.9482,7.9496,7.9449,7.9452,7.9532,7.9611,7.9441,7.9445,7.9742,7.9751,7.9759,7.993,0,0,0,0,0,0,7.9568,7.9562,7.9622,7.9621,7.9539,7.9521,7.9516,7.9538,7.9501,7.9489,7.9475,7.9463,7.9453,7.9455,7.9458,7.9614,7.9435,7.9439,7.9441,7.9749,7.9756,7.9762,0,0,0,0,0,0,7.9557,7.9562,7.9621,7.9563,7.9554,7.9515,7.951,7.9569,7.9502,7.9482,7.9471,7.947,7.9448,7.9458,7.9459,7.9553,7.943,7.9434,7.9437,7.9438,7.9754,7.976,0,0,0,0,0,0,7.9558,7.9562,7.9563,7.9557,7.9548,7.9525,7.9565,7.9588,7.9452,7.9486,7.9438,7.9431,7.9454,7.9454,7.9461,7.9555,7.9554,7.9431,7.9433,7.9435,7.9436,0,0,0,0,0,0,0,7.9558,7.955,7.9632,7.9551,7.9543,7.9606,7.9605,7.9605,7.945,7.9445,7.9439,7.9434,7.9409,7.9413,7.9417,7.9556,0,0,7.943,7.9432,0,0,0,0,0,0,0,0,7.9546,7.9549,7.9632,7.9632,7.9631,7.9605,7.9605,7.9605,7.9449,7.9445,7.944,7.9436,7.941,7.9414,7.9417,0,0,0,0,0,0,0,0,0,0,0,0,0,0,0,7.9632,7.9632,0,7.9605,7.9605,7.9605,7.9449,7.9445,7.9441,7.9438,7.9411,7.9414,7.9417,0,0,0,0,0,0,0,0,0,0,0,0,0,0,0,0,0,0,0,0,0,0,0,0,0,0,0,0,0,0,0,0,0,0,0,0,0,0,0,0,0,0,0,0,0,0,0,0,0,0,0,0,0,0,0,0,0,0,0,0,0,0,0,0,0,0,0,0,0]}]]]